Location: Newark
(35.0317°N, 117.3481°W)
Time: 19:15:13
(UTC+00:00)

ISS - Visible Passes

Search period start: 23 October 2019 00:00
Search period end: 02 November 2019 00:00
Orbit: 411 x 421 km, 51.6° (Epoch: 24 October)

Date Brightness Start Highest point End Pass type
(mag) Time Alt. Az. Time Alt. Az. Time Alt. Az.
23 Oct -3.2 13:17:12 10° SW 13:20:31 59° SE 13:23:49 10° NE visible
24 Oct -1.9 12:29:52 15° S 12:32:00 30° SE 12:35:00 10° ENE visible
25 Oct -0.7 11:44:19 15° ESE 11:44:19 15° ESE 11:45:42 10° E visible
25 Oct -3.2 13:17:16 13° WSW 13:20:02 40° NW 13:23:14 10° NE visible
26 Oct -3.9 12:31:27 76° NNW 12:31:27 76° NNW 12:34:46 10° NE visible
27 Oct -0.7 11:45:25 15° ENE 11:45:25 15° ENE 11:46:07 10° ENE visible
27 Oct -1.9 13:18:21 14° WNW 13:19:45 17° NNW 13:22:04 10° NNE visible
28 Oct -1.9 12:32:08 21° N 12:32:08 21° N 12:33:52 10° NNE visible
30 Oct -1.0 12:32:15 10° N 12:32:15 10° N 12:32:17 10° N visible
